Location: Boiro
(42.6475°N, 8.8834°W)
Time: 16:12:17
(UTC+02:00)

DELTA 1 DEB - Pass Details

Date: 08 July 2022
Orbit: 820 x 872 km, 99.0° (Epoch: 13 August)

Event Time Altitude Azimuth Distance (km) Brightness Sun altitude
Rises 06:11:06 0° 30° (NNE) 3,425 ? -8.8°
Reaches altitude 10° 06:14:17 10° 49° (NE) 2,473 ? -8.4°
Maximum altitude 06:17:57 18° 91° (E) 1,947 ? -7.9°
Drops below altitude 10° 06:21:34 10° 134° (SE) 2,438 ? -7.4°
Sets 06:24:40 0° 152° (SSE) 3,358 ? -6.9°
